Location: Peterborough
(44.3091°N, 78.3197°W)
Time: 17:33:22
(UTC-04:00)

Transit 4A - Pass Details

Date: 28 March 2023
Orbit: 864 x 980 km, 66.8° (Epoch: 04 June)

Event Time Altitude Azimuth Distance (km) Brightness Sun altitude
Rises 09:17:15 0° 272° (W) 3,457 10.3 23.0°
Reaches altitude 10° 09:20:54 10° 296° (WNW) 2,537 9.7 23.6°
Maximum altitude 09:24:11 15° 330° (NNW) 2,212 9.6 24.2°
Drops below altitude 10° 09:27:31 10° 4° (N) 2,579 10.1 24.7°
Sets 09:31:18 0° 27° (NNE) 3,549 11.0 25.4°
